Preview of NWS' New Version of Forecast
This preview is not operational and should not be used for support decisions.
Latest weather observations around

Bar Harbor, Hancock County-Bar Harbor Airport (KBHB)

Using International System of Units (Switch to English Units)
Date/ Time (EDT) Wind (kph) Vis. (km) Weather Sky Cond. Temp (°C) Rel. Humidity Wind Chill (°C) Heat Index (°C) Pressure Precip. (cm)
Air Dwpt 6 hour Altimeter (hPa) Sea level (hPa) 1 hr 3 hr 6 hr
Max Min
Apr 22 15:56 NNE 18 16.09 Cloudy OVC010 14 12     89%     1020 1020.3      
Apr 22 14:56 NE 17 16.09 Cloudy OVC012 14 13     90%     1020.3 1020.8      
Apr 22 14:33 NE 15 16.09 Cloudy OVC012 15 13     88%     1020.3        
Apr 22 13:56 Calm 16.09 Cloudy OVC008 13 12     93%     1021.3 1021.6      
Apr 22 13:15 E 5 16.09 Cloudy OVC010 12 11     94%     1021.3        
Apr 22 12:56 ESE 9 16.09 Cloudy BKN005 OVC010 12 11     96%     1021.3 1021.7      
Apr 22 11:56 ESE 8 16.09 Cloudy OVC005 11 11     97%     1021.7 1022.1      
Apr 22 11:28 E 8 16.09 Cloudy OVC005 12 11     94%     1021.7        
Apr 22 10:56 ESE 9 16.09 Cloudy OVC003 11 11     97%     1022 1022.4      
Apr 22 10:27 Calm 4.83 Fog/Mist OVC003 11 11     100%     1021.7        
Apr 22 10:19 ESE 5 2.82 Fog/Mist OVC003 11 10     94%     1022        
Apr 22 09:56 ESE 8 14.48 Cloudy OVC003 10 10     100%     1021.7 1022.1      
Apr 22 09:14 NE 5 16.09 Cloudy OVC005 11 11     100%     1021.7        
Apr 22 08:56 N 8 16.09 Cloudy OVC003 10 10     100%     1021.7 1022      
Apr 22 08:42 N 9 4.83 Fog/Mist OVC003 9 9     100% 8   1021.7        
Apr 22 08:40 N 11 2.41 Fog/Mist OVC003 9 9     100% 7   1021.7        
Apr 22 08:37 N 9 1.21 Fog/Mist OVC003 9 9     100% 8   1021.7        
Apr 22 08:28 N 9 0.4 Fog OVC003 9 9     100% 8   1022        
Apr 22 08:13 NNE 9 0.8 Fog OVC003 8 8     100% 6   1022        
Apr 22 08:09 NNE 11 1.61 Fog/Mist OVC003 8 8     100% 6   1022        
Apr 22 08:00 N 9 3.22 Fog/Mist OVC003 8 8     100% 6   1021.7        
Apr 22 07:56 N 9 1.61 Fog/Mist OVC003 8 8     100% 6   1021.7 1022      
Apr 22 07:31 NNE 9 1.21 Fog/Mist OVC003 7 7     100% 5   1021.3        
Apr 22 07:24 NNE 11 2.82 Fog/Mist OVC003 7 7     100% 5   1021.7        
Apr 22 06:56 N 9 14.48 Cloudy OVC003 7 7     100% 5   1021.7 1022      
Apr 22 06:47 N 9 4.83 Fog/Mist OVC003 7 7     100% 5   1021.3        
Apr 22 06:43 N 9 2.01 Fog/Mist OVC003 7 7     100% 5   1021.3        
Apr 22 06:33 N 9 1.21 Fog/Mist OVC003 7 7     100% 5   1021.3        
Apr 22 05:56 Calm 0.4 Fog OVC003 7 7     100%     1020.7 1021.2      
Apr 22 05:35 NNW 5 0.4 Fog OVC003 7 7     100% 6   1020.7        
Apr 22 05:18 N 5 1.21 Fog/Mist OVC003 7 7     100% 6   1020.7        
Apr 22 04:56 Calm 0.8 Fog OVC003 7 7     100%     1021 1021.2      
Apr 22 04:08 Calm 0.4 Fog OVC003 7 7     100%     1021        
Apr 22 03:56 Calm 0.8 Fog OVC003 7 7     100%     1021 1021.4      
Apr 22 03:46 Calm 0.8 Fog OVC003 7 7     100%     1021        
Apr 22 03:09 Calm 1.21 Fog/Mist OVC003 8 7     93%     1021        
Apr 22 02:56 Calm 0.8 Fog OVC003 7 7     100%     1021 1021.5      
Apr 22 01:56 Calm 0.4 Fog OVC003 7 7     100%     1021.3 1021.7     0
Apr 22 00:56 SSW 8 0.4 Fog OVC003 7 7     100% 6   1021 1021.5      
Apr 22 00:25 SSW 8 0.4 Fog OVC003 7 7     100% 6   1021.7        
Apr 21 23:56 SW 8 1.21 Fog/Mist OVC003 8 7     96% 7   1021.3 1021.9      
Apr 21 23:53 SW 9 1.21 Fog/Mist OVC003 8 8     100% 6   1021.3        
Apr 21 23:27 SW 9 0.8 Fog OVC003 8 8     100% 6   1021.3        
Apr 21 23:21 SSW 13 1.61 Fog/Mist OVC003 8 8     100% 6   1021.3        
Apr 21 23:04 SSW 15 1.21 Fog/Mist OVC003 8 8     100% 5   1021.3        
Apr 21 22:56 SSW 13 2.41 Fog/Mist OVC003 8 8     100% 6   1021.3 1021.6 0 0  
Apr 21 22:14 SSW 9 2.01 Fog/Mist OVC003 8 8     100% 6   1021        
Apr 21 21:56 SSW 13 1.21 Fog/Mist OVC003 9 8     96% 7   1020.7 1021.2      
Apr 21 21:33 SSW 17 0.8 Fog OVC003 9 9     100% 7   1020.7        
Apr 21 21:20 SSW 13 1.21 Fog/Mist OVC003 9 9     100% 7   1020.3        
Apr 21 20:56 SSW 13 1.61 Fog/Mist OVC003 10 10     100%     1020 1020.4 0    
Apr 21 20:25 SSW 17 1.61 Light Rain and Fog/Mist OVC003 11 10     94%     1020   0    
Apr 21 20:06 SSW 21 2.01 Light Rain and Fog/Mist OVC003 11 11     100%     1019.7   0    
Apr 21 19:56 SSW 13 1.21 Light Rain and Fog/Mist OVC003 11 11     97%     1019.3 1019.8 0   0
Apr 21 19:53 SSW 15 1.21 Fog/Mist OVC003 11 11     100%     1019.3        
Apr 21 18:56 Calm 0.4 Fog OVC003 11 11     100%     1018.3 1018.6      
Apr 21 18:28 ESE 11 0.4 Fog OVC003 11 10     94%     1018.3        
Apr 21 18:23 ESE 9 1.21 Fog/Mist OVC003 11 11     100%     1018.3        
Apr 21 18:19 ESE 5 2.01 Fog/Mist OVC003 11 11     100%     1018.3        
Apr 21 18:00 E 5 1.61 Fog/Mist OVC003 11 10     94%     1018.6        
Apr 21 17:56 E 8 4.02 Fog/Mist OVC003 11 11     100%     1018.6 1018.9 0    
Apr 21 16:56 SSE 13 11.27 Light Rain OVC003 11 11     100%     1019 1019.4 0 0  
Apr 21 16:31 SSW 9 9.66 Light Rain and Fog/Mist OVC003 12 11     94%     1019   0    
Apr 21 16:11 SW 8 3.22 Light Rain and Fog/Mist OVC003 12 12     100%     1019   0    
Apr 21 15:56 SSW 8 3.22 Light Rain and Fog/Mist OVC005 12 12     97%     1019.3 1019.7 0    
Apr 21 15:24 SSW 9 4.02 Light Rain and Fog/Mist BKN006 OVC012 12 11     94%     1019.3   0    
Apr 21 14:56 SSW 13 16.09 Cloudy OVC004 12 12     100%     1019 1019.5      
Apr 21 14:44 S 11 16.09 Cloudy OVC004 12 12     100%     1018.6        
Apr 21 14:17 SW 8 4.83 Fog/Mist OVC002 12 12     100%     1019        
Apr 21 14:12 S 8 2.01 Fog/Mist OVC002 12 12     100%     1019        
Apr 21 14:09 S 8 1.21 Fog/Mist OVC002 12 12     100%     1019        
Apr 21 13:56 S 9 0.4 Fog OVC002 11 11     100%     1019.3 1019.6     0
Apr 21 13:49 S 11 0.4 Fog OVC002 11 11     100%     1019.3        
Apr 21 13:25 S 9 0.8 Fog OVC002 12 12     100%     1019.3        
Apr 21 12:56 S 11 1.61 Fog/Mist OVC002 12 11     96%     1019.7 1019.9 0    
Apr 21 12:46 SSW 9 2.01 Light Rain and Fog/Mist OVC002 11 11     100%     1019.7   0    
Apr 21 12:28 SSW 15 1.21 Fog/Mist OVC002 11 11     100%     1019.7        
Apr 21 12:07 SW 13 2.01 Fog/Mist OVC002 11 11     100%     1019.7        
Apr 21 11:56 SSW 13 1.21 Fog/Mist OVC002 12 11     96%     1019.7 1020      
Apr 21 11:35 SW 9 2.82 Fog/Mist OVC002 12 12     100%     1019.7        
Apr 21 10:56 SSW 11 16.09 Cloudy OVC002 12 11     96%     1019.7 1020.1 0 0  
Apr 21 10:19 SSW 11 8.05 Light Rain and Fog/Mist OVC002 10 10     100%     1019.7   0    
Apr 21 09:38 SSW 17 2.01 Light Rain and Fog/Mist OVC002 10 10     100%     1019   0    
Apr 21 09:19 SSW 22 1.61 Light Rain and Fog/Mist OVC002 10 9     94%     1019.3   0    
Apr 21 08:56   1.21 Fog/Mist OVC002 11 11     100%     1018.6 1019.1 0    
Apr 21 08:38 SSW 22 0.8 Fog OVC002 11 11     100%     1018.3   0    
Apr 21 08:11 SSW 18 1.21 Light Rain and Fog/Mist OVC002 10 10     100%     1018.3   0    
Apr 21 07:56 SSW 22 2.41 Light Rain and Fog/Mist OVC002 11 11     100%     1018.6 1019 0   0
Apr 21 07:46 SSW 24 2.82 Light Rain and Fog/Mist OVC002 11 11     100%     1018.3   0    
Apr 21 07:39 SSW 21 6.44 Light Rain and Fog/Mist OVC002 11 11     100%     1018.6   0    
Apr 21 07:26 SSW 18 3.22 Fog/Mist OVC002 11 11     100%     1018.3        
Apr 21 07:21 SSW 18 1.61 Fog/Mist OVC002 11 11     100%     1018.3        
Apr 21 06:53 SSW 21 0.8 Fog OVC002 11 11     100%     1018.3        
Apr 21 06:30 S 18 0.4 Fog OVC002 11 11     100%     1018        
Apr 21 06:02 SSW 26 0.8 Fog OVC002 11 11     100%     1018        
Apr 21 05:56   1.61 Fog/Mist OVC002 11 11     100%     1018 1018.4 0    
Apr 21 05:53 SSW 24 2.82 Fog/Mist OVC002 12 12     100%     1018   0    
Apr 21 05:21 S 21 2.82 Light Rain and Fog/Mist OVC002 11 11     100%     1017.3   0    
Apr 21 05:06 SSW 17 1.61 Light Rain and Fog/Mist OVC002 11 11     100%     1017.6   0    
Apr 21 04:32 SSW 18 0.8 Fog OVC002 11 10     94%     1017.6   0    
Apr 21 04:14 S 24 1.21 Light Rain and Fog/Mist OVC002 11 11     100%     1018   0    
Apr 21 04:06 SSW 17 2.82 Light Rain and Fog/Mist OVC002 11 11     100%     1018   0    
Apr 21 03:56 SW 13 9.66 Fog/Mist OVC002 11 11     97%     1018 1018.5 0    
Apr 21 03:48 SSW 22 14.48 Cloudy OVC004 11 11     100%     1018.3   0    
Apr 21 03:29 SW 17 16.09 Light Rain BKN006 OVC110 12 11     94%     1017.3   0    
Apr 21 02:56 S 22 14.48 Light Rain SCT006 OVC100 11 11     100%     1018 1018.2 0    
Apr 21 02:53 SSW 21 14.48 Light Rain BKN006 OVC100 11 11     100%     1017.6   0    
Apr 21 01:56 SSW 26 11.27 Cloudy OVC003 11 11     100%     1017.6 1018      
Apr 21 01:48 SSW 26 4.83 Fog/Mist OVC003 11 11     100%     1017.6        
Apr 21 01:22 SSW 21 2.01 Fog/Mist OVC003 12 11     94%     1018        
Apr 20 23:56 SSW 21 1.21 Fog/Mist OVC003 12 11     96%     1018.3 1018.6      
Apr 20 23:53 SSW 21 1.21 Fog/Mist OVC003 12 12     100%     1018.3        
Apr 20 23:09 SSW 24 2.41 Fog/Mist OVC003 12 12     100%     1018        
Apr 20 22:56 SSW 28 3.22 Fog/Mist OVC003 12 12     100%     1018 1018.5      
Apr 20 22:40 S 32 4.02 Fog/Mist OVC003 12 12     100%     1018.3        
Apr 20 21:56 S 32 6.44 Fog/Mist OVC003 12 12     97%     1018 1018.5      
Apr 20 21:29 S 26 4.83 Fog/Mist OVC003 12 12     100%     1018        
Apr 20 20:56 SSW 24 6.44 Fog/Mist OVC005 12 12     100%     1018 1018.5      
Apr 20 19:56 SSW 22 8.05 Fog/Mist OVC005 12 11     96%     1018.3 1018.7 0   0
Apr 20 18:56 SSW 26 6.44 Fog/Mist OVC005 12 11     96%     1018 1018.2 0    
Apr 20 18:20 SSW 24 6.44 Fog/Mist OVC005 12 12     100%     1016.9   0    
Apr 20 17:56 SSW 15 4.83 Light Rain and Fog/Mist OVC003 12 12     100%     1017.3 1017.5 0    
Apr 20 17:43 SSW 18 4.02 Cloudy OVC003 12 12     100%     1016.6        
Apr 20 17:25 S 17 2.01 Cloudy OVC003 11 11     100%     1016.6        
Apr 20 17:14 SSW 11 1.21 Cloudy OVC003 11 11     100%     1016.6        
Apr 20 16:56 S 13 0.8 Cloudy OVC003 11 11     100%     1016.6 1017   0  
Apr 20 16:52 S 9 0.8 Cloudy OVC003 11 11     100%     1016.6        
Apr 20 15:56 SSW 8 0.4 Fog OVC003 11 11     100%     1016.6 1016.9 0    
Apr 20 15:23 SSW 13 0.8 Light Rain and Fog OVC003 10 10     100%     1016.6   0    
Apr 20 15:09 SSW 15 1.61 Light Rain and Fog/Mist OVC003 10 10     100%     1016.6   0    
Apr 20 14:56 SSW 18 0.8 Light Rain and Fog OVC003 10 10     100%     1016.6 1016.9 0    
Apr 20 14:11 SSW 17 0.4 Fog OVC003 11 11     100%     1016.3        
Apr 20 13:56 SSW 21 0.8 Fog OVC003 11 11     100%     1016.3 1016.5 0   0
Apr 20 12:56 SSW 18 0.8 Light Rain and Fog OVC003 11 11     100%     1015.2 1015.6 0    
Apr 20 12:42 SSW 24 0.4 Fog OVC003 11 10     94%     1015.6   0    
Apr 20 11:56 SSW 22 0.8 Light Rain and Fog OVC003 11 11     100%     1014.9 1015.3 0    
Apr 20 11:39 SSW 18 0.8 Fog OVC003 11 11     100%     1014.6   0    
Apr 20 11:22 SSW 22 1.21 Light Rain and Fog/Mist OVC003 11 11     100%     1014.6   0    
Apr 20 10:56 SSW 28 0.8 Light Rain and Fog OVC003 10 10     100%     1013.9 1014.3 0 0  
Apr 20 10:36 SSW 22 0.8 Light Rain and Fog OVC003 11 11     100%     1013.6   0    
Apr 20 09:56 SSW 17 1.21 Light Rain and Fog/Mist OVC003 11 11     100%     1012.9 1013.2 0    
Apr 20 09:53 SSW 22 0.8 Light Rain and Fog OVC003 11 11     100%     1012.9   0    
Apr 20 09:31 SSW 18 0.4 Fog OVC003 11 11     100%     1012.5   0    
Apr 20 09:17 SSW 21 0.8 Light Rain and Fog OVC003 11 11     100%     1012.2   0    
Apr 20 08:35 SSW 26 0.8 Fog OVC003 11 11     100%     1011.5   0    
Apr 20 08:33 SSW 28 1.61 Fog/Mist OVC003 11 11     100%     1011.5   0    
Apr 20 08:20 S 24 3.22 Fog/Mist OVC003 11 11     100%     1011.2   0    
Apr 20 08:07 SSW 22 1.61 Light Rain and Fog/Mist OVC003 11 10     94%     1011.2   0    
Apr 20 07:56 SSW 24 0.8 Light Rain and Fog OVC003 11 11     100%     1011.5 1011.8 0   0
Apr 20 07:38 SSW 28 0.8 Light Rain and Fog OVC003 11 11     100%     1011.2   0    
Apr 20 07:24 SSW 28 1.61 Light Rain and Fog/Mist OVC003 11 11     100%     1010.8   0    
Apr 20 06:56 SSW 33 0.8 Light Rain and Fog OVC003 11 11     100%     1010.2 1010.5 0    
Apr 20 06:52 SSW 32 0.8 Light Rain and Fog OVC003 11 11     100%     1010.2   0    
Apr 20 06:33 SSW 30 1.21 Light Rain and Fog/Mist OVC003 11 11     100%     1010.2   0    
Apr 20 06:20 SW 24 1.61 Fog/Mist OVC003 11 11     100%     1010.5   0    
Apr 20 05:56 SSW 28 1.21 Fog/Mist OVC003 11 11     100%     1009.8 1010.3 0    
Apr 20 05:33 SSW 28 1.61 Fog/Mist OVC003 11 11     100%     1009.8   0    
Apr 20 05:12 SSW 26 1.21 Light Rain and Fog/Mist OVC003 11 10     94%     1009.8   0    
Apr 20 04:56 SSW 26 1.61 Light Rain and Fog/Mist OVC003 11 10     96%     1009.8 1010.2 0 0  
Apr 20 04:34 SSW 26 2.82 Light Rain and Fog/Mist OVC003 11 11     100%     1009.8   0    
Apr 20 04:10 SSW 24 4.83 Light Rain and Fog/Mist OVC003 11 11     100%     1009.8   0    
Apr 20 03:56 SSW 26 2.01 Fog/Mist OVC003 11 11     100%     1010.2 1010.5 0    
Apr 20 03:36 SSW 18 2.01 Light Rain and Fog/Mist OVC003 10 10     100%     1010.2   0    
Apr 20 03:21 SSW 18 1.21 Light Rain and Fog/Mist OVC003 10 10     100%     1010.5   0    
Apr 20 02:56 SSW 18 1.61 Fog/Mist OVC003 10 10     100%     1010.5 1011      
Apr 20 02:24 SSW 17 1.61 Fog/Mist OVC003 11 11     100%     1010.5        
Apr 20 01:56 SSW 21 1.21 Fog/Mist OVC003 11 11     100%     1010.5 1011      
Apr 20 00:56 SSW 22 1.21 Fog/Mist OVC003 11 11     100%     1010.5 1010.8      
Apr 19 23:56 SSW 22 1.21 Fog/Mist OVC003 11 11     100%     1010.2 1010.6      
Apr 19 23:54 SSW 22 1.21 Fog/Mist OVC003 11 11     100%     1010.2        
Apr 19 23:19 SSW 21 0.8 Fog OVC003 11 11     100%     1010.2        
Apr 19 22:56 SSW 24 1.21 Fog/Mist OVC003 11 11     100%     1010.2 1010.4      
Apr 19 21:56 SSW 26 1.21 Fog/Mist OVC003 11 11     97%     1009.8 1010.3      
Apr 19 21:28 SSW 24 0.8 Fog OVC003 11 11     100%     1009.8        
Apr 19 20:56 SSW 22 1.21 Fog/Mist OVC003 11 11     97%     1009.5 1010      
Apr 19 20:38 SSW 22 1.61 Fog/Mist OVC003 11 11     100%     1009.5        
Apr 19 20:18 SSW 22 4.02 Fog/Mist OVC003 12 11     94%     1009.5        
Apr 19 19:56 SSW 26 6.44 Fog/Mist OVC003 12 11     96%     1009.2 1009.7      
Apr 19 19:35 SSW 18 4.83 Fog/Mist OVC003 12 11     94%     1009.2        
Apr 19 18:56 SSW 24 6.44 Fog/Mist OVC005 12 12     97%     1008.8 1009.3      
Apr 19 17:56 SSW 21 6.44 Fog/Mist OVC005 12 11     96%     1008.5 1008.8      
Apr 19 16:56 SSW 21 8.05 Fog/Mist OVC005 12 11     96%     1008.1 1008.5      
May 15 02:38 Calm 4.83 Fog/Mist SCT008 7 7     100%     1011.5        
May 13 23:56 SSW 22 16.09 Cloudy OVC004 7 6     96% 3   1019.3 1019.6      
May 13 20:29 SSW 21 16.09 Cloudy OVC004 7 7     100% 4   1019.7        
May 12 15:56 SSW 26 16.09 Clear CLR 12 -2     39%     1020.3 1020.8      
May 12 04:56 Calm 16.09 Clear CLR 1 -3     78%     1023 1023.4      
May 11 09:56 NW 15 16.09 Clear CLR 11 -1     46%     1011.9 1012.1      
Jun 11 23:56 WSW 9 16.09 Clear   17 13     80%     1010.5 1010.9      
Notice The following observation data may not be complete
Jun 11 10:56   16.09 Clear CLR   15      %     1011.2 1011.5      
Jun 10 19:56 SSW 15 16.09 Clear CLR 15 11     75%     1014.6 1014.9      
Jun 09 05:56 E 9 16.09 Cloudy FEW050 BKN090 OVC110 11 7     79%     1007.5 1007.7 0    
Jun 08 08:56 SSW 17 16.09 Clear CLR 17 9     62%     1015.9 1016.2      
Jun 07 10:56 NNE 8 16.09 Clear CLR 18 5     42%     1013.6 1013.8      
Jun 06 03:12 NE 15 16.09 Mostly Cloudy BKN015 8 5     81% 5   1015.6